Leadville, CO

1:40 PM MDT on September 24, 2017 (GMT -0600)
Lake County

Weather History for KLXV - September, 2013

Change the Weather History Date:

Monday, September 9, 2013

  Actual Average Record
Temperature  
Mean Temperature 52 °F -  
Max Temperature 65 °F 63 °F 72 °F (1988)
Min Temperature 39 °F 33 °F 21 °F (2001)
Degree Days  
Heating Degree Days 13 17  
Month to date heating degree days 81 145  
Since 1 July heating degree days 683 867  
Cooling Degree Days 0 0  
Month to date cooling degree days 0 0  
Year to date cooling degree days 0 0  
Growing Degree Days 2 (Base 50)    
Moisture  
Dew Point 44 °F    
Average Humidity 68    
Maximum Humidity 96    
Minimum Humidity 40    
Precipitation  
Precipitation 0.09 in 0.04 in 0.31 in (2002)
Month to date precipitation 1.05 0.40  
Year to date precipitation 12.69 9.35  
Sea Level Pressure  
Sea Level Pressure 29.93 in    
Wind  
Wind Speed 5 mph (North)    
Max Wind Speed 20 mph    
Max Gust Speed 29 mph    
Visibility 9 miles    
Events Rain , Thunderstorm    
T = Trace of Precipitation, MM = Missing Value Source: NWS Daily Summary

Daily Weather History Graph

Daily Weather History Graph

Search for Another Location

Airport or City:

Trip Planner

Search our weather history database for the weather conditions in past years. The results will help you decide how hot, cold, wet, or windy it might be!

Date:

Astronomy

Sep. 09, 2013 Rise Set
Actual Time 6:41 AM MDT 7:22 PM MDT
Civil Twilight 6:14 AM MDT 7:49 PM MDT
Nautical Twilight 5:42 AM MDT 8:21 PM MDT
Astronomical Twilight 5:09 AM MDT 8:54 PM MDT
Moon 11:03 AM MDT (9/9) 9:43 PM MDT (9/9)
Length of Visible Light 13h 35m
Length of Day
12h 41m
Waxing Crescent, 19% of the Moon is Illuminated
Sep 9
Waxing Crescent
Sep 12
First Quarter
Sep 19
Full
Sep 26
Last Quarter
Oct 4
New

Hourly Weather History & Observations

Time (MDT) Temp. Windchill Dew Point Humidity Pressure Visibility Wind Dir Wind Speed Gust Speed Precip Events Conditions
12:53 AM 48.0 °F - 44.1 °F 86% 29.81 in 10.0 mi NNE 6.9 mph - N/A   Mostly Cloudy
1:53 AM 46.9 °F - 42.1 °F 83% 29.81 in 10.0 mi NNE 6.9 mph - N/A   Mostly Cloudy
2:53 AM 44.1 °F 40.8 °F 41.0 °F 89% 29.83 in 10.0 mi NNE 5.8 mph - N/A   Clear
3:53 AM 43.0 °F - 41.0 °F 93% 29.82 in 10.0 mi Calm Calm - N/A   Clear
4:53 AM 41.0 °F 37.1 °F 39.0 °F 93% 29.82 in 10.0 mi NE 5.8 mph - N/A   Clear
5:53 AM 39.9 °F 37.8 °F 37.9 °F 93% 29.87 in 10.0 mi NNE 3.5 mph - N/A   Clear
6:53 AM 39.0 °F - 37.0 °F 93% 29.90 in 10.0 mi Calm Calm - N/A   Clear
7:53 AM 45.0 °F - 42.1 °F 90% 29.87 in 10.0 mi Calm Calm - N/A   Clear
8:53 AM 50.0 °F - 43.0 °F 77% 29.86 in 10.0 mi Calm Calm - N/A   Mostly Cloudy
9:53 AM 54.0 °F - 44.1 °F 69% 29.84 in 10.0 mi Calm Calm - N/A   Overcast
10:53 AM 57.0 °F - 45.0 °F 64% 29.83 in 10.0 mi West 8.1 mph - N/A   Overcast
11:53 AM 60.1 °F - 43.0 °F 53% 29.82 in 10.0 mi Variable 3.5 mph - N/A   Mostly Cloudy
12:53 PM 60.1 °F - 41.0 °F 49% 29.81 in 10.0 mi West 5.8 mph - N/A   Overcast
1:53 PM 64.0 °F - 39.0 °F 40% 29.75 in 10.0 mi WNW 6.9 mph - N/A   Overcast
2:53 PM 62.1 °F - 42.1 °F 48% 29.78 in 10.0 mi NW 6.9 mph - N/A   Scattered Clouds
3:53 PM 61.0 °F - 43.0 °F 52% 29.77 in 10.0 mi NW 10.4 mph 16.1 mph N/A   Mostly Cloudy
4:36 PM 55.4 °F - 46.4 °F 72% 30.26 in 9.0 mi NNW 6.9 mph 21.9 mph 0.00 in Rain , Thunderstorm Light Rain
4:51 PM 53.6 °F - 46.4 °F 77% 30.29 in 3.0 mi Variable 3.5 mph - 0.02 in Rain Rain
4:53 PM 54.0 °F - 46.9 °F 77% 29.87 in 2.5 mi Calm Calm - 0.03 in Rain Rain
5:05 PM 51.8 °F - 48.2 °F 88% 30.27 in 3.0 mi North 6.9 mph - 0.02 in Rain , Thunderstorm Light Rain
5:34 PM 53.6 °F - 48.2 °F 82% 30.28 in 10.0 mi NNE 6.9 mph - 0.02 in   Overcast
5:53 PM 54.0 °F - 46.9 °F 77% 29.86 in 10.0 mi NNE 8.1 mph - 0.02 in   Mostly Cloudy
6:53 PM 51.1 °F - 46.9 °F 86% 29.90 in 10.0 mi North 10.4 mph - N/A   Clear
7:53 PM 50.0 °F - 46.9 °F 89% 29.87 in 10.0 mi North 9.2 mph - N/A   Overcast
8:53 PM 46.9 °F - 44.1 °F 90% 29.88 in 10.0 mi North 12.7 mph 17.3 mph N/A   Mostly Cloudy
9:53 PM 48.0 °F - 44.1 °F 86% 29.87 in 10.0 mi North 8.1 mph - N/A   Overcast
10:18 PM 48.2 °F - 44.6 °F 87% 30.32 in 10.0 mi Calm Calm - 0.02 in Thunderstorm Overcast
10:33 PM 48.2 °F - 46.4 °F 93% 30.33 in 10.0 mi NNW 3.5 mph - 0.02 in Rain Light Rain
10:53 PM 46.9 °F - 45.0 °F 93% 29.85 in 6.0 mi NNE 8.1 mph - 0.04 in Rain Light Rain
11:53 PM 46.9 °F - 46.0 °F 97% 29.84 in 10.0 mi Variable 3.5 mph - 0.00 in Thunderstorm Overcast